Wind_Speed
4 3 2 2 1 1 1 1 2 2 3 5 5 5 6 8 9 11 12 14 13 13 14 13 12 8 11 5 13 13 9 7 7 5 9 9 5 6 10 11 11 15 15 15 13
5 4 3 2 1 1 1 1 1 1 2 3 5 5 5 8 8 7 8 11 15 16 16 15 19 14 8 7 14 13 10 5 5 6 5 8 5 4 8 12 10 14 11 12 14
7 6 5 4 3 3 3 3 2 2 2 3 4 4 5 9 8 5 5 9 14 19 19 17 20 10 5 4 1 4 7 4 3 7 6 5 4 2 6 7 10 11 11 10 11
10 9 7 7 5 5 5 4 3 3 2 3 4 5 5 9 5 5 5 8 12 19 19 18 18 12 7 3 7 6 3 4 2 1 2 4 4 2 1 6 14 12 10 8 10
13 12 10 10 8 7 7 7 5 4 3 3 4 6 6 7 7 5 4 8 12 17 20 21 19 13 8 6 8 3 2 2 2 2 2 4 4 7 1 1 8 12 13 8 8
16 15 14 12 11 9 9 9 7 6 4 3 4 6 7 8 8 6 5 6 10 15 20 20 19 14 8 4 7 3 1 5 3 2 2 5 7 8 4 4 4 7 10 8 7
18 18 17 15 13 12 11 11 10 8 6 5 4 5 7 8 9 9 8 8 10 13 19 18 17 16 10 6 6 3 5 5 6 6 5 4 11 11 7 7 2 5 5 11 8
18 18 18 17 15 14 14 13 12 10 8 7 5 5 5 5 8 10 9 10 9 13 16 20 15 13 10 9 7 7 8 11 13 14 14 12 16 10 8 6 5 6 5 7 12
18 18 18 18 17 16 16 14 14 12 11 9 7 6 5 7 9 10 11 14 13 11 13 17 17 14 8 10 9 6 11 12 4 13 16 17 18 13 9 6 6 4 5 3 8
17 18 18 18 18 18 18 15 16 15 13 11 10 7 7 8 8 9 12 15 17 15 12 16 19 19 17 12 8 4 7 8 11 4 14 18 19 15 12 9 9 10 8 5 4
17 17 17 16 16 18 20 17 17 17 16 13 7 9 6 8 7 9 10 12 16 17 17 17 17 20 18 10 9 8 7 8 7 8 6 12 12 9 8 6 11 15 12 9 2
20 19 19 18 16 16 18 17 17 17 16 16 15 13 10 9 9 8 10 12 12 14 17 19 17 11 16 12 8 5 3 7 9 8 6 5 8 4 3 6 11 17 14 11 4
20 20 20 21 18 16 16 14 14 14 18 16 17 17 16 14 12 9 8 10 10 11 15 16 9 12 12 11 7 5 5 8 6 6 3 6 8 4 10 11 14 15 18 13 6
19 19 18 20 19 17 16 13 10 11 10 14 13 19 18 19 16 11 9 9 11 10 11 11 10 9 8 14 9 4 7 7 5 3 2 4 3 12 12 12 11 11 6 11 9
17 16 19 19 17 17 16 11 8 7 4 3 8 14 16 22 11 14 13 12 10 10 13 9 12 9 4 13 7 1 3 1 3 5 5 6 2 4 7 8 9 1 8 7 7
16 15 16 18 17 16 16 11 9 6 7 2 4 8 15 21 23 12 8 17 12 13 17 15 12 9 6 8 11 5 4 3 5 7 3 6 1 2 3 8 4 2 6 6 5
15 14 15 14 17 16 16 13 9 7 6 1 2 8 12 20 27 24 15 21 18 14 19 19 16 12 6 4 8 9 7 1 2 2 5 5 4 4 6 8 7 5 7 7 7
12 13 13 14 17 16 17 17 7 7 17 6 3 6 8 16 22 24 21 20 23 14 9 14 8 16 9 10 8 6 8 5 4 3 3 5 2 5 7 6 3 6 8 6 3
11 11 12 15 16 17 20 21 16 9 8 18 14 6 9 11 12 18 24 23 22 21 11 7 8 8 12 10 9 11 6 8 4 2 2 3 3 5 3 1 3 7 6 6 10
9 9 11 15 16 19 22 25 19 20 8 4 6 4 4 10 16 15 21 22 25 19 18 8 5 12 8 10 12 15 10 5 5 4 3 3 4 5 4 2 9 5 10 6 12
7 7 10 13 16 20 25 26 26 16 19 6 3 3 2 1 7 21 12 19 14 23 19 23 13 7 9 2 9 16 16 12 5 4 7 2 3 4 3 9 13 14 15 15 16
5 7 10 14 17 22 26 26 28 26 20 15 7 4 3 2 4 11 22 16 17 17 23 22 8 17 19 13 6 10 10 12 8 6 6 3 3 1 3 10 16 16 20 16 13
5 8 10 13 11 14 19 22 25 26 21 16 20 9 6 4 3 6 12 19 26 18 24 24 15 19 5 2 8 8 9 8 8 7 8 5 2 6 7 12 16 19 17 12 14
6 8 9 9 10 10 16 19 20 21 20 21 20 18 12 7 5 5 10 10 20 20 21 20 25 20 16 10 7 11 9 9 6 5 5 5 6 7 6 9 17 18 18 13 14
7 9 10 8 10 9 10 10 13 12 15 13 20 20 13 9 9 8 6 8 6 14 20 25 24 28 22 18 15 13 11 10 7 3 1 1 5 8 5 8 12 17 17 14 16
6 10 11 7 5 4 6 8 11 10 15 16 13 23 14 7 11 9 8 8 6 9 12 19 18 23 26 23 16 17 14 10 9 7 6 6 9 8 9 12 12 14 14 15 18
6 12 12 11 7 4 2 4 8 6 10 14 12 17 17 11 9 10 10 8 7 8 11 14 17 22 16 17 14 11 13 11 9 8 6 9 11 13 13 8 8 9 10 13 16
Wind_Direction
185 182 164 156 144 125 143 119 104 108 118 126 142 148 156 164 171 188 202 202 198 192 189 177 176 157 171 271 273 209 200 185 214 248 229 183 157 132 66 59 73 66 60 53 62
216 217 217 227 239 276 254 251 164 138 137 140 145 143 148 150 154 172 192 199 194 187 189 173 175 168 176 112 114 131 126 135 223 244 250 215 210 58 48 55 61 59 57 54 58
233 234 241 251 259 272 282 279 273 223 187 175 168 161 157 158 138 150 174 186 191 186 190 174 175 186 175 184 188 125 129 150 179 225 253 241 225 290 36 46 55 53 45 40 48
242 244 248 257 260 267 273 277 273 263 248 214 198 194 175 168 156 137 147 175 190 187 187 178 176 181 203 204 155 149 118 127 88 329 281 221 241 345 111 49 60 46 36 43 41
249 252 251 254 258 261 269 272 269 265 260 242 217 210 199 171 174 157 139 158 180 182 183 180 180 187 212 224 157 145 167 185 198 250 210 221 268 261 266 65 53 43 41 49 49
251 254 255 254 254 260 264 266 264 259 256 254 236 221 217 203 197 200 172 148 175 181 182 184 185 193 212 216 179 196 234 196 252 257 240 225 249 240 272 291 52 20 29 61 74
248 251 255 257 258 259 262 264 266 261 256 250 242 229 226 216 208 211 200 167 166 179 185 183 186 200 202 172 198 248 256 262 282 275 272 314 255 262 270 286 317 339 13 50 69
249 251 254 257 259 258 259 262 265 265 257 253 244 236 229 207 211 217 209 194 176 175 186 192 187 196 192 197 211 238 279 293 266 259 262 276 279 276 274 303 299 315 327 43 50
253 254 254 257 259 260 259 259 258 259 257 254 250 247 229 203 205 210 210 210 197 188 187 203 209 213 223 223 234 260 277 299 297 242 244 261 267 266 282 281 313 292 314 357 44
249 252 253 253 256 259 260 258 258 256 253 250 249 247 226 213 214 200 212 214 204 198 194 207 226 227 239 232 236 266 284 314 338 266 235 249 258 270 288 292 298 291 284 293 6
252 253 255 255 257 257 257 255 257 259 254 250 237 229 234 220 212 206 211 220 211 206 207 205 211 222 237 217 220 271 279 315 357 350 225 236 255 277 287 279 300 301 287 299 316
254 253 255 255 258 260 259 259 258 264 260 255 246 235 235 229 221 224 206 208 216 214 214 212 212 200 205 219 236 229 290 330 323 324 257 254 251 292 285 307 308 296 286 285 288
252 251 250 251 254 257 263 266 269 272 270 247 250 239 226 238 233 228 221 204 213 212 211 212 203 210 198 203 197 226 289 312 342 354 265 252 288 292 320 327 301 280 251 248 250
249 247 245 247 246 247 256 265 279 293 291 268 253 243 227 234 241 219 204 203 217 212 213 203 179 179 204 196 206 297 298 279 308 346 334 335 306 316 318 324 324 316 227 227 242
248 245 242 241 243 238 244 252 259 273 334 262 226 221 218 222 231 214 215 212 210 200 194 180 192 183 180 194 205 234 345 271 271 318 332 306 279 294 332 341 345 360 155 196 234
249 246 245 236 234 230 226 222 217 206 249 222 226 216 214 211 216 208 209 216 216 209 208 197 190 191 154 176 208 198 226 273 303 321 340 331 324 23 318 320 358 149 173 169 219
249 242 240 233 226 223 213 199 193 202 238 162 209 229 227 217 216 221 232 213 206 203 217 221 221 200 198 205 203 227 254 328 338 12 199 358 317 312 339 284 298 258 184 188 223
257 246 236 230 222 215 205 192 202 222 232 198 264 236 248 219 225 223 230 210 205 206 197 224 216 219 212 218 209 243 245 186 179 188 256 334 291 322 346 287 237 181 179 187 230
264 250 229 223 217 209 200 195 212 227 235 243 254 267 239 225 218 221 219 216 210 211 217 206 219 190 206 221 221 235 231 227 178 138 299 308 270 345 28 30 233 192 219 337 331
274 248 226 216 209 205 203 210 212 222 202 224 219 238 219 224 217 221 215 229 221 216 220 231 240 226 204 220 222 233 240 212 180 134 220 256 265 280 294 205 213 230 234 299 328
276 239 215 208 201 203 209 215 217 225 225 235 209 220 222 242 231 225 226 221 214 225 218 227 236 208 185 189 239 219 221 224 201 173 159 190 243 39 37 222 227 241 263 269 301
258 217 210 199 195 206 216 218 225 230 233 228 244 282 243 318 288 227 226 222 223 222 220 222 234 255 244 271 277 196 206 219 221 215 207 198 232 151 260 234 244 260 263 282 290
230 204 201 195 199 210 223 229 230 231 226 245 240 250 235 259 269 196 212 225 234 230 223 219 226 242 234 176 183 140 181 184 195 202 209 170 217 328 263 250 245 254 270 273 286
213 190 200 204 197 214 227 229 235 240 243 236 237 229 245 248 227 206 179 199 239 241 226 223 226 230 228 208 173 152 146 137 162 156 170 222 270 315 324 286 262 266 265 255 272
213 206 201 206 210 235 241 235 224 209 227 218 232 213 234 244 246 222 181 168 191 230 227 222 224 233 244 249 243 223 203 186 188 168 96 319 282 290 318 320 262 255 255 260 278
216 207 212 203 214 244 264 258 214 206 214 214 217 213 212 233 247 239 210 196 169 168 204 208 217 230 240 242 226 204 194 210 231 247 273 296 302 308 290 303 285 257 260 278 298
228 214 216 222 227 243 259 281 214 232 208 207 209 199 209 224 215 210 211 210 183 171 178 192 208 206 186 173 168 193 211 218 248 261 267 287 298 304 299 277 239 236 269 291 287
Height
3171 3172 3172 3172 3173 3172 3173 3173 3173 3174 3174 3174 3174 3174 3174 3175 3175 3176 3177 3179 3180 3182 3185 3187 3187 3188 3189 3188 3188 3189 3192 3191 3191 3191 3191 3192 3192 3192 3193 3192 3190 3188 3188 3188 3186
3170 3171 3171 3172 3172 3172 3173 3173 3173 3173 3174 3174 3174 3174 3175 3175 3175 3175 3176 3177 3178 3181 3183 3186 3187 3188 3189 3189 3189 3191 3193 3193 3193 3192 3192 3193 3193 3194 3195 3194 3193 3191 3189 3190 3188
3169 3170 3171 3171 3171 3172 3172 3172 3172 3173 3174 3174 3175 3175 3175 3176 3176 3176 3176 3176 3177 3179 3181 3185 3186 3188 3189 3189 3189 3190 3192 3192 3193 3192 3192 3193 3193 3195 3195 3195 3194 3193 3191 3190 3190
3168 3169 3169 3170 3170 3170 3171 3171 3171 3172 3173 3174 3174 3175 3175 3176 3178 3176 3176 3176 3177 3178 3182 3185 3187 3188 3189 3189 3189 3191 3193 3193 3193 3193 3193 3194 3195 3195 3195 3196 3196 3194 3192 3191 3191
3166 3167 3168 3168 3169 3169 3169 3170 3170 3171 3172 3172 3173 3174 3175 3176 3176 3176 3176 3175 3177 3179 3182 3185 3187 3188 3189 3189 3190 3191 3192 3192 3194 3194 3193 3195 3195 3197 3196 3197 3197 3195 3193 3193 3192
3163 3165 3166 3167 3167 3167 3168 3168 3169 3170 3171 3171 3172 3172 3174 3175 3175 3175 3176 3176 3177 3179 3182 3184 3186 3189 3189 3189 3191 3191 3192 3193 3193 3194 3194 3195 3196 3196 3196 3197 3197 3196 3195 3194 3193
3161 3162 3163 3164 3165 3165 3166 3166 3167 3168 3169 3170 3171 3171 3172 3174 3174 3175 3175 3176 3177 3179 3182 3184 3187 3189 3189 3189 3190 3191 3192 3193 3193 3194 3194 3195 3196 3195 3196 3196 3197 3197 3196 3195 3194
3158 3158 3160 3161 3162 3163 3164 3164 3165 3166 3167 3168 3169 3169 3170 3172 3173 3174 3175 3176 3177 3178 3181 3183 3186 3188 3189 3190 3191 3191 3192 3192 3192 3193 3193 3194 3193 3195 3196 3195 3196 3196 3196 3195 3195
3153 3155 3156 3158 3159 3160 3161 3162 3163 3164 3166 3167 3168 3168 3169 3170 3171 3172 3173 3175 3176 3177 3179 3182 3185 3186 3188 3190 3191 3191 3191 3191 3190 3190 3191 3192 3191 3194 3195 3194 3194 3195 3195 3195 3195
3150 3152 3153 3155 3156 3157 3157 3159 3160 3162 3164 3165 3166 3169 3168 3169 3169 3170 3171 3173 3174 3176 3178 3181 3182 3184 3186 3189 3190 3190 3190 3189 3189 3188 3188 3189 3189 3192 3193 3193 3193 3193 3194 3194 3195
3147 3149 3150 3151 3152 3153 3155 3157 3161 3161 3161 3163 3164 3165 3166 3167 3168 3169 3170 3172 3173 3174 3176 3179 3181 3182 3185 3188 3189 3189 3189 3189 3187 3186 3186 3188 3189 3191 3191 3192 3191 3190 3191 3193 3194
3143 3145 3147 3148 3150 3151 3152 3154 3156 3158 3158 3159 3161 3163 3164 3165 3167 3167 3169 3171 3172 3172 3174 3178 3179 3182 3184 3186 3187 3187 3188 3188 3188 3187 3187 3187 3188 3189 3190 3189 3188 3188 3190 3192 3194
3139 3141 3143 3144 3147 3149 3150 3152 3153 3153 3154 3157 3157 3159 3162 3164 3165 3166 3168 3168 3170 3171 3173 3175 3178 3180 3182 3183 3185 3186 3186 3187 3187 3186 3186 3187 3187 3187 3188 3187 3185 3183 3186 3189 3192
3135 3137 3139 3140 3145 3146 3149 3150 3151 3151 3152 3153 3153 3155 3158 3160 3162 3164 3165 3168 3169 3171 3172 3174 3176 3178 3179 3182 3184 3184 3185 3185 3186 3187 3186 3187 3188 3186 3184 3184 3182 3179 3182 3187 3190
3131 3133 3134 3137 3140 3144 3147 3148 3150 3152 3153 3151 3149 3150 3152 3157 3160 3160 3163 3165 3167 3169 3172 3173 3174 3177 3179 3181 3182 3184 3184 3184 3185 3186 3187 3186 3187 3184 3184 3183 3181 3180 3181 3184 3188
3127 3129 3131 3133 3136 3140 3143 3146 3150 3154 3149 3147 3146 3146 3149 3151 3155 3157 3160 3163 3165 3167 3168 3170 3172 3175 3177 3178 3180 3182 3183 3184 3185 3185 3185 3185 3185 3183 3182 3182 3181 3181 3181 3183 3185
3123 3125 3128 3130 3134 3137 3141 3144 3149 3147 3146 3145 3144 3145 3146 3148 3151 3155 3158 3159 3162 3164 3166 3168 3170 3173 3174 3177 3178 3180 3181 3182 3185 3186 3186 3184 3183 3181 3181 3180 3180 3179 3181 3182 3184
3120 3121 3124 3127 3130 3134 3138 3142 3144 3141 3142 3142 3142 3143 3144 3145 3148 3151 3154 3155 3158 3162 3164 3165 3169 3171 3172 3174 3176 3178 3179 3181 3185 3189 3184 3182 3182 3180 3179 3178 3179 3180 3180 3182 3182
3117 3118 3121 3123 3127 3131 3135 3137 3138 3139 3139 3140 3141 3141 3141 3142 3146 3147 3151 3153 3155 3159 3162 3163 3166 3168 3170 3172 3174 3175 3177 3179 3179 3183 3184 3182 3182 3179 3178 3177 3178 3179 3180 3181 3181
3115 3116 3118 3120 3123 3127 3131 3132 3134 3135 3137 3138 3138 3139 3139 3140 3142 3144 3147 3149 3153 3156 3159 3162 3163 3165 3168 3169 3171 3172 3174 3177 3177 3183 3184 3181 3179 3178 3177 3177 3178 3178 3178 3178 3179
3113 3114 3115 3117 3120 3123 3125 3127 3130 3132 3135 3137 3137 3137 3138 3138 3139 3140 3143 3147 3149 3153 3156 3159 3162 3163 3165 3165 3165 3167 3169 3172 3175 3177 3179 3182 3178 3176 3175 3177 3177 3177 3177 3177 3177
3112 3113 3114 3115 3119 3120 3121 3123 3126 3129 3132 3135 3135 3136 3136 3136 3136 3137 3139 3143 3145 3148 3151 3156 3158 3159 3161 3163 3163 3164 3165 3168 3171 3175 3175 3175 3175 3174 3174 3174 3174 3176 3176 3176 3176
3110 3112 3113 3115 3117 3117 3118 3120 3122 3125 3129 3131 3134 3136 3135 3135 3137 3136 3136 3138 3140 3144 3147 3151 3154 3158 3158 3161 3161 3162 3163 3165 3167 3169 3171 3173 3173 3173 3173 3172 3173 3173 3173 3174 3173
3110 3111 3113 3114 3115 3115 3115 3117 3119 3122 3125 3128 3129 3133 3134 3134 3135 3135 3135 3136 3136 3140 3144 3147 3150 3152 3155 3157 3160 3161 3162 3162 3164 3167 3168 3169 3170 3171 3169 3170 3171 3170 3169 3169 3170
3109 3111 3112 3113 3113 3114 3115 3115 3116 3118 3121 3123 3124 3129 3131 3133 3133 3133 3134 3135 3135 3136 3139 3143 3146 3149 3152 3154 3157 3159 3160 3160 3162 3163 3166 3168 3168 3168 3168 3167 3166 3166 3167 3168 3169
3108 3110 3112 3113 3113 3114 3114 3113 3114 3115 3118 3121 3122 3125 3128 3130 3132 3132 3133 3134 3134 3134 3135 3138 3142 3145 3148 3150 3153 3155 3156 3158 3159 3160 3163 3165 3166 3166 3166 3165 3164 3164 3165 3166 3166
3106 3108 3110 3111 3113 3114 3114 3113 3114 3114 3117 3119 3120 3122 3125 3128 3129 3130 3132 3133 3133 3134 3135 3137 3139 3141 3145 3148 3151 3154 3154 3154 3156 3157 3160 3162 3163 3163 3164 3164 3163 3162 3164 3165 3165